Time,TemperatureF,DewpointF,PressureIn,WindDirection,WindDirectionDegrees,WindSpeedMPH,WindSpeedGustMPH,Humidity,HourlyPrecipIn,Conditions,Clouds,dailyrainin,SoftwareType,DateUTC
2013-04-22 00:00:00,33.7,28.5,30.67,ESE,113,0.0,2.0,81,0.00,,,0.00,WUHU216DAVISVP2,2013-04-22 04:00:00,
2013-04-22 00:01:00,33.7,28.5,30.68,ESE,118,2.0,2.0,81,0.00,,,0.00,WUHU216DAVISVP2,2013-04-22 04:01:00,
2013-04-22 00:06:00,33.4,28.2,30.68,ESE,118,0.0,2.0,81,0.00,,,0.00,WUHU216DAVISVP2,2013-04-22 04:06:00,
2013-04-22 00:11:00,33.1,28.2,30.68,ESE,118,0.0,2.0,82,0.00,,,0.00,WUHU216DAVISVP2,2013-04-22 04:11:00,
2013-04-22 00:16:00,32.8,27.9,30.68,ESE,118,0.0,2.0,82,0.00,,,0.00,WUHU216DAVISVP2,2013-04-22 04:16:00,
2013-04-22 00:21:00,32.6,27.7,30.68,ESE,118,0.0,0.0,82,0.00,,,0.00,WUHU216DAVISVP2,2013-04-22 04:21:00,
2013-04-22 00:26:00,32.4,27.8,30.68,ESE,118,0.0,0.0,83,0.00,,,0.00,WUHU216DAVISVP2,2013-04-22 04:26:00,
2013-04-22 00:30:00,32.3,27.7,30.68,ESE,113,0.0,2.0,83,0.00,,,0.00,WUHU216DAVISVP2,2013-04-22 04:30:00,
2013-04-22 00:31:00,32.2,27.6,30.68,ESE,118,0.0,0.0,83,0.00,,,0.00,WUHU216DAVISVP2,2013-04-22 04:31:00,
2013-04-22 00:36:00,32.0,27.4,30.68,ESE,118,0.0,0.0,83,0.00,,,0.00,WUHU216DAVISVP2,2013-04-22 04:36:00,
2013-04-22 00:41:00,31.9,27.3,30.68,ESE,118,0.0,0.0,83,0.00,,,0.00,WUHU216DAVISVP2,2013-04-22 04:41:00,
2013-04-22 00:46:00,31.9,27.6,30.68,ESE,118,0.0,0.0,84,0.00,,,0.00,WUHU216DAVISVP2,2013-04-22 04:46:00,
2013-04-22 00:51:00,31.9,27.6,30.68,ESE,118,0.0,0.0,84,0.00,,,0.00,WUHU216DAVISVP2,2013-04-22 04:51:00,
2013-04-22 00:56:00,31.8,27.5,30.68,ESE,118,0.0,0.0,84,0.00,,,0.00,WUHU216DAVISVP2,2013-04-22 04:56:00,
2013-04-22 01:00:00,31.7,27.4,30.68,North,0,0.0,0.0,84,0.00,,,0.00,WUHU216DAVISVP2,2013-04-22 05:00:00,
2013-04-22 01:01:00,31.7,27.4,30.68,ESE,118,0.0,0.0,84,0.00,,,0.00,WUHU216DAVISVP2,2013-04-22 05:01:00,
2013-04-22 01:06:00,31.6,27.3,30.68,ESE,118,0.0,0.0,84,0.00,,,0.00,WUHU216DAVISVP2,2013-04-22 05:06:00,
2013-04-22 01:11:00,31.5,27.5,30.68,ESE,118,0.0,0.0,85,0.00,,,0.00,WUHU216DAVISVP2,2013-04-22 05:11:00,
2013-04-22 01:16:00,31.3,27.3,30.68,ESE,118,0.0,0.0,85,0.00,,,0.00,WUHU216DAVISVP2,2013-04-22 05:16:00,
2013-04-22 01:21:00,31.2,27.5,30.69,ESE,118,0.0,0.0,86,0.00,,,0.00,WUHU216DAVISVP2,2013-04-22 05:21:00,
2013-04-22 01:26:00,31.1,27.4,30.68,ESE,118,0.0,0.0,86,0.00,,,0.00,WUHU216DAVISVP2,2013-04-22 05:26:00,
2013-04-22 01:30:00,31.1,27.4,30.68,North,0,0.0,0.0,86,0.00,,,0.00,WUHU216DAVISVP2,2013-04-22 05:30:00,
2013-04-22 01:31:00,31.0,27.6,30.68,ESE,118,0.0,0.0,87,0.00,,,0.00,WUHU216DAVISVP2,2013-04-22 05:31:00,
2013-04-22 01:36:00,31.1,27.7,30.69,ESE,118,0.0,0.0,87,0.00,,,0.00,WUHU216DAVISVP2,2013-04-22 05:36:00,
2013-04-22 01:41:00,31.1,27.9,30.68,ESE,118,0.0,0.0,88,0.00,,,0.00,WUHU216DAVISVP2,2013-04-22 05:41:00,
2013-04-22 01:46:00,31.1,27.6,30.68,ESE,118,0.0,0.0,87,0.00,,,0.00,WUHU216DAVISVP2,2013-04-22 05:46:00,
2013-04-22 01:51:00,31.0,27.5,30.68,ESE,118,0.0,0.0,87,0.00,,,0.00,WUHU216DAVISVP2,2013-04-22 05:51:00,
2013-04-22 01:56:00,30.9,27.7,30.68,ESE,118,0.0,0.0,88,0.00,,,0.00,WUHU216DAVISVP2,2013-04-22 05:56:00,
2013-04-22 02:00:00,30.9,27.8,30.68,North,0,0.0,0.0,88,0.00,,,0.00,WUHU216DAVISVP2,2013-04-22 06:00:00,
2013-04-22 02:01:00,30.9,27.7,30.68,ESE,118,0.0,0.0,88,0.00,,,0.00,WUHU216DAVISVP2,2013-04-22 06:01:00,
2013-04-22 02:06:00,31.0,27.9,30.68,ESE,118,0.0,0.0,88,0.00,,,0.00,WUHU216DAVISVP2,2013-04-22 06:06:00,
2013-04-22 02:11:00,31.0,27.9,30.68,ESE,118,0.0,0.0,88,0.00,,,0.00,WUHU216DAVISVP2,2013-04-22 06:11:00,
2013-04-22 02:16:00,31.0,27.8,30.68,ESE,118,0.0,0.0,88,0.00,,,0.00,WUHU216DAVISVP2,2013-04-22 06:16:00,
2013-04-22 02:21:00,30.8,27.6,30.68,ESE,118,0.0,0.0,88,0.00,,,0.00,WUHU216DAVISVP2,2013-04-22 06:21:00,
2013-04-22 02:26:00,30.7,27.5,30.68,ESE,118,0.0,0.0,88,0.00,,,0.00,WUHU216DAVISVP2,2013-04-22 06:26:00,
2013-04-22 02:30:00,30.7,27.6,30.68,North,0,0.0,0.0,88,0.00,,,0.00,WUHU216DAVISVP2,2013-04-22 06:30:00,
2013-04-22 02:31:00,30.7,27.5,30.68,ESE,118,0.0,0.0,88,0.00,,,0.00,WUHU216DAVISVP2,2013-04-22 06:31:00,
2013-04-22 02:36:00,30.6,27.7,30.68,ESE,118,0.0,0.0,89,0.00,,,0.00,WUHU216DAVISVP2,2013-04-22 06:36:00,
2013-04-22 02:41:00,30.6,27.7,30.68,ESE,118,0.0,0.0,89,0.00,,,0.00,WUHU216DAVISVP2,2013-04-22 06:41:00,
2013-04-22 02:46:00,30.5,27.6,30.68,ESE,118,0.0,0.0,89,0.00,,,0.00,WUHU216DAVISVP2,2013-04-22 06:46:00,
2013-04-22 02:51:00,30.5,27.6,30.69,ESE,118,0.0,0.0,89,0.00,,,0.00,WUHU216DAVISVP2,2013-04-22 06:51:00,
2013-04-22 02:56:00,30.4,27.5,30.68,ESE,118,0.0,0.0,89,0.00,,,0.00,WUHU216DAVISVP2,2013-04-22 06:56:00,
2013-04-22 03:00:00,30.4,27.8,30.69,North,0,0.0,0.0,90,0.00,,,0.00,WUHU216DAVISVP2,2013-04-22 07:00:00,
2013-04-22 03:01:00,30.4,27.8,30.69,ESE,118,0.0,0.0,90,0.00,,,0.00,WUHU216DAVISVP2,2013-04-22 07:01:00,
2013-04-22 03:06:00,30.3,27.7,30.69,ESE,118,0.0,0.0,90,0.00,,,0.00,WUHU216DAVISVP2,2013-04-22 07:06:00,
2013-04-22 03:11:00,30.2,27.6,30.69,ESE,118,0.0,0.0,90,0.00,,,0.00,WUHU216DAVISVP2,2013-04-22 07:11:00,
2013-04-22 03:16:00,30.2,27.6,30.69,ESE,118,0.0,0.0,90,0.00,,,0.00,WUHU216DAVISVP2,2013-04-22 07:16:00,
2013-04-22 03:21:00,30.1,27.5,30.68,ESE,118,0.0,0.0,90,0.00,,,0.00,WUHU216DAVISVP2,2013-04-22 07:21:00,
2013-04-22 03:26:00,30.1,27.5,30.68,ESE,118,0.0,0.0,90,0.00,,,0.00,WUHU216DAVISVP2,2013-04-22 07:26:00,
2013-04-22 03:30:00,30.0,27.4,30.69,North,0,0.0,0.0,90,0.00,,,0.00,WUHU216DAVISVP2,2013-04-22 07:30:00,
2013-04-22 03:31:00,30.0,27.4,30.68,ESE,118,0.0,0.0,90,0.00,,,0.00,WUHU216DAVISVP2,2013-04-22 07:31:00,
2013-04-22 03:36:00,29.9,27.3,30.69,ESE,118,0.0,0.0,90,0.00,,,0.00,WUHU216DAVISVP2,2013-04-22 07:36:00,
2013-04-22 03:41:00,29.8,27.2,30.69,ESE,118,0.0,0.0,90,0.00,,,0.00,WUHU216DAVISVP2,2013-04-22 07:41:00,
2013-04-22 03:46:00,29.8,27.4,30.69,ESE,118,0.0,0.0,91,0.00,,,0.00,WUHU216DAVISVP2,2013-04-22 07:46:00,
2013-04-22 03:51:00,29.8,27.4,30.69,ESE,118,0.0,0.0,91,0.00,,,0.00,WUHU216DAVISVP2,2013-04-22 07:51:00,
2013-04-22 03:56:00,29.7,27.1,30.69,ESE,118,0.0,1.0,90,0.00,,,0.00,WUHU216DAVISVP2,2013-04-22 07:56:00,
2013-04-22 04:00:00,29.6,27.3,30.69,ESE,113,0.0,1.0,91,0.00,,,0.00,WUHU216DAVISVP2,2013-04-22 08:00:00,
2013-04-22 04:01:00,29.6,27.2,30.69,ESE,118,0.0,1.0,91,0.00,,,0.00,WUHU216DAVISVP2,2013-04-22 08:01:00,
2013-04-22 04:06:00,29.6,27.2,30.70,ESE,118,0.0,1.0,91,0.00,,,0.00,WUHU216DAVISVP2,2013-04-22 08:06:00,
2013-04-22 04:11:00,29.5,27.1,30.69,ESE,118,0.0,1.0,91,0.00,,,0.00,WUHU216DAVISVP2,2013-04-22 08:11:00,
2013-04-22 04:16:00,29.4,27.0,30.70,ESE,118,0.0,0.0,91,0.00,,,0.00,WUHU216DAVISVP2,2013-04-22 08:16:00,
2013-04-22 04:21:00,29.2,26.9,30.70,ESE,118,0.0,0.0,91,0.00,,,0.00,WUHU216DAVISVP2,2013-04-22 08:21:00,
2013-04-22 04:26:00,29.2,26.9,30.69,ESE,118,0.0,0.0,91,0.00,,,0.00,WUHU216DAVISVP2,2013-04-22 08:26:00,
2013-04-22 04:30:00,29.1,26.8,30.70,North,0,0.0,0.0,91,0.00,,,0.00,WUHU216DAVISVP2,2013-04-22 08:30:00,
2013-04-22 04:31:00,29.0,26.7,30.70,ESE,118,0.0,0.0,91,0.00,,,0.00,WUHU216DAVISVP2,2013-04-22 08:31:00,
2013-04-22 04:36:00,28.9,26.6,30.70,ESE,118,0.0,0.0,91,0.00,,,0.00,WUHU216DAVISVP2,2013-04-22 08:36:00,
2013-04-22 04:41:00,28.9,26.6,30.70,ESE,118,0.0,0.0,91,0.00,,,0.00,WUHU216DAVISVP2,2013-04-22 08:41:00,
2013-04-22 04:46:00,28.8,26.5,30.70,ESE,118,0.0,0.0,91,0.00,,,0.00,WUHU216DAVISVP2,2013-04-22 08:46:00,
2013-04-22 04:51:00,28.7,26.4,30.71,ESE,118,0.0,0.0,91,0.00,,,0.00,WUHU216DAVISVP2,2013-04-22 08:51:00,
2013-04-22 04:56:00,28.6,26.5,30.70,ESE,118,0.0,0.0,92,0.00,,,0.00,WUHU216DAVISVP2,2013-04-22 08:56:00,
2013-04-22 05:00:00,28.6,26.6,30.71,North,0,0.0,0.0,92,0.00,,,0.00,WUHU216DAVISVP2,2013-04-22 09:00:00,
2013-04-22 05:01:00,28.5,26.4,30.71,ESE,118,0.0,0.0,92,0.00,,,0.00,WUHU216DAVISVP2,2013-04-22 09:01:00,
2013-04-22 05:06:00,28.5,26.4,30.71,ESE,118,0.0,0.0,92,0.00,,,0.00,WUHU216DAVISVP2,2013-04-22 09:06:00,
2013-04-22 05:11:00,28.5,26.4,30.71,ESE,118,0.0,0.0,92,0.00,,,0.00,WUHU216DAVISVP2,2013-04-22 09:11:00,
2013-04-22 05:16:00,28.4,26.3,30.71,ESE,118,0.0,0.0,92,0.00,,,0.00,WUHU216DAVISVP2,2013-04-22 09:16:00,
2013-04-22 05:21:00,28.4,26.3,30.71,ESE,118,0.0,0.0,92,0.00,,,0.00,WUHU216DAVISVP2,2013-04-22 09:21:00,
2013-04-22 05:26:00,28.4,26.3,30.72,ESE,118,0.0,0.0,92,0.00,,,0.00,WUHU216DAVISVP2,2013-04-22 09:26:00,
2013-04-22 05:30:00,28.4,26.4,30.71,North,0,0.0,0.0,92,0.00,,,0.00,WUHU216DAVISVP2,2013-04-22 09:30:00,
2013-04-22 05:31:00,28.4,26.3,30.72,ESE,118,0.0,0.0,92,0.00,,,0.00,WUHU216DAVISVP2,2013-04-22 09:31:00,
2013-04-22 05:36:00,28.4,26.3,30.72,ESE,118,0.0,0.0,92,0.00,,,0.00,WUHU216DAVISVP2,2013-04-22 09:36:00,
2013-04-22 05:41:00,28.4,26.3,30.72,ESE,118,0.0,0.0,92,0.00,,,0.00,WUHU216DAVISVP2,2013-04-22 09:41:00,
2013-04-22 05:46:00,28.4,26.3,30.72,ESE,118,0.0,0.0,92,0.00,,,0.00,WUHU216DAVISVP2,2013-04-22 09:46:00,
2013-04-22 05:51:00,28.3,26.2,30.72,ESE,118,0.0,0.0,92,0.00,,,0.00,WUHU216DAVISVP2,2013-04-22 09:51:00,
2013-04-22 05:56:00,28.3,26.2,30.72,ESE,118,0.0,0.0,92,0.00,,,0.00,WUHU216DAVISVP2,2013-04-22 09:56:00,
2013-04-22 06:00:00,28.3,26.3,30.72,North,0,0.0,0.0,92,0.00,,,0.00,WUHU216DAVISVP2,2013-04-22 10:00:00,
2013-04-22 06:01:00,28.3,26.5,30.72,ESE,118,0.0,0.0,93,0.00,,,0.00,WUHU216DAVISVP2,2013-04-22 10:01:00,
2013-04-22 06:06:00,28.3,26.2,30.72,ESE,118,0.0,0.0,92,0.00,,,0.00,WUHU216DAVISVP2,2013-04-22 10:06:00,
2013-04-22 06:11:00,28.3,26.5,30.72,ESE,118,0.0,0.0,93,0.00,,,0.00,WUHU216DAVISVP2,2013-04-22 10:11:00,
2013-04-22 06:16:00,28.3,26.5,30.73,ESE,118,0.0,0.0,93,0.00,,,0.00,WUHU216DAVISVP2,2013-04-22 10:16:00,
2013-04-22 06:21:00,28.4,26.6,30.73,ESE,118,0.0,0.0,93,0.00,,,0.00,WUHU216DAVISVP2,2013-04-22 10:21:00,
2013-04-22 06:26:00,28.5,26.7,30.73,ESE,118,0.0,0.0,93,0.00,,,0.00,WUHU216DAVISVP2,2013-04-22 10:26:00,
2013-04-22 06:30:00,28.7,26.9,30.73,North,0,0.0,0.0,93,0.00,,,0.00,WUHU216DAVISVP2,2013-04-22 10:30:00,
2013-04-22 06:31:00,28.8,27.0,30.73,ESE,118,0.0,0.0,93,0.00,,,0.00,WUHU216DAVISVP2,2013-04-22 10:31:00,
2013-04-22 06:36:00,29.1,27.5,30.73,ESE,118,0.0,0.0,94,0.00,,,0.00,WUHU216DAVISVP2,2013-04-22 10:36:00,
2013-04-22 06:41:00,29.5,27.9,30.73,ESE,118,0.0,0.0,94,0.00,,,0.00,WUHU216DAVISVP2,2013-04-22 10:41:00,
2013-04-22 06:46:00,29.8,28.0,30.73,ESE,118,1.0,1.0,93,0.00,,,0.00,WUHU216DAVISVP2,2013-04-22 10:46:00,
2013-04-22 06:51:00,30.1,28.0,30.73,ESE,118,0.0,1.0,92,0.00,,,0.00,WUHU216DAVISVP2,2013-04-22 10:51:00,
2013-04-22 06:56:00,30.3,28.2,30.73,ESE,118,1.0,2.0,92,0.00,,,0.00,WUHU216DAVISVP2,2013-04-22 10:56:00,
2013-04-22 07:00:00,30.4,28.1,30.73,ESE,113,0.0,2.0,91,0.00,,,0.00,WUHU216DAVISVP2,2013-04-22 11:00:00,
2013-04-22 07:01:00,30.5,28.1,30.73,ESE,118,1.0,2.0,91,0.00,,,0.00,WUHU216DAVISVP2,2013-04-22 11:01:00,
2013-04-22 07:06:00,30.7,28.3,30.73,ESE,118,0.0,2.0,91,0.00,,,0.00,WUHU216DAVISVP2,2013-04-22 11:06:00,
2013-04-22 07:11:00,31.0,28.4,30.73,ESE,118,0.0,2.0,90,0.00,,,0.00,WUHU216DAVISVP2,2013-04-22 11:11:00,
2013-04-22 07:16:00,31.3,28.7,30.73,ESE,118,0.0,1.0,90,0.00,,,0.00,WUHU216DAVISVP2,2013-04-22 11:16:00,
2013-04-22 07:21:00,31.6,28.7,30.73,ESE,118,0.0,1.0,89,0.00,,,0.00,WUHU216DAVISVP2,2013-04-22 11:21:00,
2013-04-22 07:26:00,31.9,29.0,30.74,ESE,118,0.0,1.0,89,0.00,,,0.00,WUHU216DAVISVP2,2013-04-22 11:26:00,
2013-04-22 07:30:00,32.1,28.9,30.73,ESE,113,0.0,1.0,88,0.00,,,0.00,WUHU216DAVISVP2,2013-04-22 11:30:00,
2013-04-22 07:31:00,32.2,28.7,30.73,ESE,118,0.0,1.0,87,0.00,,,0.00,WUHU216DAVISVP2,2013-04-22 11:31:00,
2013-04-22 07:36:00,32.5,29.0,30.73,ESE,118,0.0,1.0,87,0.00,,,0.00,WUHU216DAVISVP2,2013-04-22 11:36:00,
2013-04-22 07:41:00,32.8,29.3,30.73,ESE,118,0.0,1.0,87,0.00,,,0.00,WUHU216DAVISVP2,2013-04-22 11:41:00,
2013-04-22 07:46:00,33.2,31.1,30.74,ESE,118,0.0,1.0,92,0.00,,,0.00,WUHU216DAVISVP2,2013-04-22 11:46:00,
2013-04-22 07:51:00,33.6,29.8,30.73,ESE,118,0.0,1.0,86,0.00,,,0.00,WUHU216DAVISVP2,2013-04-22 11:51:00,
2013-04-22 07:56:00,33.9,29.6,30.74,ESE,118,0.0,1.0,84,0.00,,,0.00,WUHU216DAVISVP2,2013-04-22 11:56:00,
2013-04-22 08:00:00,34.2,29.9,30.74,ESE,113,0.0,1.0,84,0.00,,,0.00,WUHU216DAVISVP2,2013-04-22 12:00:00,
2013-04-22 08:01:00,34.3,30.0,30.74,ESE,118,0.0,1.0,84,0.00,,,0.00,WUHU216DAVISVP2,2013-04-22 12:01:00,
2013-04-22 08:06:00,34.8,30.4,30.74,ESE,118,0.0,1.0,84,0.00,,,0.00,WUHU216DAVISVP2,2013-04-22 12:06:00,
2013-04-22 08:11:00,35.4,30.7,30.74,ESE,118,1.0,1.0,83,0.00,,,0.00,WUHU216DAVISVP2,2013-04-22 12:11:00,
2013-04-22 08:16:00,36.0,31.3,30.74,ESE,118,1.0,2.0,83,0.00,,,0.00,WUHU216DAVISVP2,2013-04-22 12:16:00,
2013-04-22 08:21:00,36.6,31.6,30.74,ESE,118,1.1,2.0,82,0.00,,,0.00,WUHU216DAVISVP2,2013-04-22 12:21:00,
2013-04-22 08:26:00,37.3,32.0,30.74,ESE,118,1.0,3.0,81,0.00,,,0.00,WUHU216DAVISVP2,2013-04-22 12:26:00,
2013-04-22 08:30:00,37.9,32.3,30.74,ESE,113,0.0,3.0,80,0.00,,,0.00,WUHU216DAVISVP2,2013-04-22 12:30:00,
2013-04-22 08:31:00,38.0,32.4,30.74,ESE,118,1.1,3.0,80,0.00,,,0.00,WUHU216DAVISVP2,2013-04-22 12:31:00,
2013-04-22 08:36:00,38.9,33.0,30.74,ESE,118,0.0,3.0,79,0.00,,,0.00,WUHU216DAVISVP2,2013-04-22 12:36:00,
2013-04-22 08:41:00,40.2,33.0,30.74,ESE,109,4.0,7.0,75,0.00,,,0.00,WUHU216DAVISVP2,2013-04-22 12:41:00,
2013-04-22 08:46:00,41.4,33.0,30.73,WSW,246,2.1,7.0,72,0.00,,,0.00,WUHU216DAVISVP2,2013-04-22 12:46:00,
2013-04-22 08:51:00,42.1,32.7,30.74,NW,309,1.3,7.0,69,0.00,,,0.00,WUHU216DAVISVP2,2013-04-22 12:51:00,
2013-04-22 08:56:00,42.6,32.5,30.73,ENE,64,2.8,7.0,67,0.00,,,0.00,WUHU216DAVISVP2,2013-04-22 12:56:00,
2013-04-22 09:00:00,43.1,32.9,30.73,ESE,113,1.0,7.0,67,0.00,,,0.00,WUHU216DAVISVP2,2013-04-22 13:00:00,
2013-04-22 09:01:00,43.3,32.8,30.73,WNW,292,6.0,6.0,66,0.00,,,0.00,WUHU216DAVISVP2,2013-04-22 13:01:00,
2013-04-22 09:06:00,43.7,32.3,30.73,East,96,9.0,13.0,64,0.00,,,0.00,WUHU216DAVISVP2,2013-04-22 13:06:00,
2013-04-22 09:11:00,44.0,32.6,30.73,East,83,2.8,13.0,64,0.00,,,0.00,WUHU216DAVISVP2,2013-04-22 13:11:00,
2013-04-22 09:16:00,44.2,31.7,30.73,ESE,108,7.0,16.0,61,0.00,,,0.00,WUHU216DAVISVP2,2013-04-22 13:16:00,
2013-04-22 09:21:00,44.4,31.9,30.74,East,91,9.0,16.0,61,0.00,,,0.00,WUHU216DAVISVP2,2013-04-22 13:21:00,
2013-04-22 09:26:00,44.6,32.5,30.74,East,93,4.5,16.0,62,0.00,,,0.00,WUHU216DAVISVP2,2013-04-22 13:26:00,
2013-04-22 09:30:00,44.9,31.8,30.73,East,90,5.0,16.0,60,0.00,,,0.00,WUHU216DAVISVP2,2013-04-22 13:30:00,
2013-04-22 09:31:00,45.0,32.0,30.73,ENE,71,4.8,12.0,60,0.00,,,0.00,WUHU216DAVISVP2,2013-04-22 13:31:00,
2013-04-22 09:36:00,45.4,32.3,30.73,ESE,117,5.6,11.0,60,0.00,,,0.00,WUHU216DAVISVP2,2013-04-22 13:36:00,
2013-04-22 09:41:00,45.8,32.3,30.73,ENE,74,3.7,11.0,59,0.00,,,0.00,WUHU216DAVISVP2,2013-04-22 13:41:00,
2013-04-22 09:46:00,46.1,33.1,30.73,East,86,5.0,12.0,60,0.00,,,0.00,WUHU216DAVISVP2,2013-04-22 13:46:00,
2013-04-22 09:51:00,46.7,31.9,30.74,ESE,115,7.1,12.0,56,0.00,,,0.00,WUHU216DAVISVP2,2013-04-22 13:51:00,
2013-04-22 09:56:00,46.7,31.9,30.74,ESE,106,5.6,13.0,56,0.00,,,0.00,WUHU216DAVISVP2,2013-04-22 13:56:00,
2013-04-22 10:00:00,46.8,33.2,30.74,ESE,113,5.0,13.0,59,0.00,,,0.00,WUHU216DAVISVP2,2013-04-22 14:00:00,
2013-04-22 10:01:00,46.9,33.0,30.74,East,98,6.2,13.0,58,0.00,,,0.00,WUHU216DAVISVP2,2013-04-22 14:01:00,
2013-04-22 10:06:00,47.5,32.6,30.75,East,84,5.4,13.0,56,0.00,,,0.00,WUHU216DAVISVP2,2013-04-22 14:06:00,
2013-04-22 10:11:00,47.7,33.7,30.75,ESE,112,6.3,12.0,58,0.00,,,0.00,WUHU216DAVISVP2,2013-04-22 14:11:00,
2013-04-22 10:16:00,47.6,33.2,30.75,ENE,60,5.1,12.0,57,0.00,,,0.00,WUHU216DAVISVP2,2013-04-22 14:16:00,
2013-04-22 10:21:00,47.5,33.4,30.75,ESE,119,11.0,12.0,58,0.00,,,0.00,WUHU216DAVISVP2,2013-04-22 14:21:00,
2013-04-22 10:26:00,47.3,32.8,30.76,East,80,6.6,16.0,57,0.00,,,0.00,WUHU216DAVISVP2,2013-04-22 14:26:00,
2013-04-22 10:30:00,47.2,33.2,30.76,ENE,68,5.0,16.0,58,0.00,,,0.00,WUHU216DAVISVP2,2013-04-22 14:30:00,
2013-04-22 10:31:00,47.2,33.2,30.76,East,94,6.2,16.0,58,0.00,,,0.00,WUHU216DAVISVP2,2013-04-22 14:31:00,
2013-04-22 10:36:00,47.3,32.8,30.76,ESE,108,6.2,16.0,57,0.00,,,0.00,WUHU216DAVISVP2,2013-04-22 14:36:00,
2013-04-22 10:41:00,47.9,32.0,30.76,East,91,5.2,14.0,54,0.00,,,0.00,WUHU216DAVISVP2,2013-04-22 14:41:00,
2013-04-22 10:46:00,48.3,29.5,30.76,ESE,121,14.0,23.0,48,0.00,,,0.00,WUHU216DAVISVP2,2013-04-22 14:46:00,
2013-04-22 10:51:00,48.7,29.4,30.76,ESE,119,9.0,23.0,47,0.00,,,0.00,WUHU216DAVISVP2,2013-04-22 14:51:00,
2013-04-22 10:56:00,49.1,29.2,30.76,East,84,6.9,23.0,46,0.00,,,0.00,WUHU216DAVISVP2,2013-04-22 14:56:00,
2013-04-22 11:00:00,49.5,29.0,30.75,ESE,113,7.0,23.0,45,0.00,,,0.00,WUHU216DAVISVP2,2013-04-22 15:00:00,
2013-04-22 11:01:00,49.5,28.5,30.75,East,96,5.7,23.0,44,0.00,,,0.00,WUHU216DAVISVP2,2013-04-22 15:01:00,
2013-04-22 11:06:00,50.1,29.6,30.74,ENE,78,4.9,14.0,45,0.00,,,0.00,WUHU216DAVISVP2,2013-04-22 15:06:00,
2013-04-22 11:11:00,50.4,28.1,30.74,NE,53,10.0,16.0,42,0.00,,,0.00,WUHU216DAVISVP2,2013-04-22 15:11:00,
2013-04-22 11:16:00,50.1,27.9,30.74,East,99,9.0,16.0,42,0.00,,,0.00,WUHU216DAVISVP2,2013-04-22 15:16:00,
2013-04-22 11:21:00,50.0,27.8,30.73,East,98,6.0,16.0,42,0.00,,,0.00,WUHU216DAVISVP2,2013-04-22 15:21:00,
2013-04-22 11:26:00,49.7,26.3,30.73,ESE,106,8.9,16.0,40,0.00,,,0.00,WUHU216DAVISVP2,2013-04-22 15:26:00,
2013-04-22 11:30:00,49.8,27.0,30.73,ENE,68,7.0,16.0,41,0.00,,,0.00,WUHU216DAVISVP2,2013-04-22 15:30:00,
2013-04-22 11:31:00,49.7,26.9,30.72,ESE,120,9.0,16.0,41,0.00,,,0.00,WUHU216DAVISVP2,2013-04-22 15:31:00,
2013-04-22 11:36:00,49.6,26.8,30.72,SE,135,5.9,16.0,41,0.00,,,0.00,WUHU216DAVISVP2,2013-04-22 15:36:00,
2013-04-22 11:44:00,50.3,28.1,30.72,NE,47,5.1,16.0,42,0.00,,,0.00,WUHU216DAVISVP2,2013-04-22 15:44:00,
2013-04-22 11:49:00,50.6,27.1,30.72,ENE,70,7.0,16.0,40,0.00,,,0.00,WUHU216DAVISVP2,2013-04-22 15:49:00,
2013-04-22 11:54:00,50.3,26.9,30.72,East,85,5.9,16.0,40,0.00,,,0.00,WUHU216DAVISVP2,2013-04-22 15:54:00,
2013-04-22 11:59:00,50.0,26.6,30.72,ESE,111,16.0,16.0,40,0.00,,,0.00,WUHU216DAVISVP2,2013-04-22 15:59:00,
2013-04-22 12:00:00,49.9,25.9,30.71,ESE,113,7.0,16.0,39,0.00,,,0.00,WUHU216DAVISVP2,2013-04-22 16:00:00,
2013-04-22 12:04:00,49.6,26.2,30.72,ENE,62,7.3,21.0,40,0.00,,,0.00,WUHU216DAVISVP2,2013-04-22 16:04:00,
2013-04-22 12:09:00,50.0,27.2,30.72,ESE,102,11.0,21.0,41,0.00,,,0.00,WUHU216DAVISVP2,2013-04-22 16:09:00,
2013-04-22 12:14:00,50.2,26.8,30.71,SE,128,6.0,21.0,40,0.00,,,0.00,WUHU216DAVISVP2,2013-04-22 16:14:00,
2013-04-22 12:19:00,50.4,26.3,30.71,ESE,107,6.1,21.0,39,0.00,,,0.00,WUHU216DAVISVP2,2013-04-22 16:19:00,
2013-04-22 12:24:00,50.6,26.5,30.71,SE,129,11.1,18.0,39,0.00,,,0.00,WUHU216DAVISVP2,2013-04-22 16:24:00,
2013-04-22 12:29:00,50.0,26.4,30.71,SE,134,10.0,18.0,40,0.00,,,0.00,WUHU216DAVISVP2,2013-04-22 16:29:00,
2013-04-22 12:30:00,50.0,26.6,30.70,ESE,113,7.0,21.0,40,0.00,,,0.00,WUHU216DAVISVP2,2013-04-22 16:30:00,
2013-04-22 12:34:00,50.4,28.0,30.70,East,91,6.1,18.0,42,0.00,,,0.00,WUHU216DAVISVP2,2013-04-22 16:34:00,
2013-04-22 12:39:00,50.6,26.3,30.70,ESE,117,11.0,18.0,39,0.00,,,0.00,WUHU216DAVISVP2,2013-04-22 16:39:00,
2013-04-22 12:44:00,50.5,27.5,30.70,ESE,104,10.2,17.0,41,0.00,,,0.00,WUHU216DAVISVP2,2013-04-22 16:44:00,
2013-04-22 12:49:00,50.4,28.6,30.70,ESE,116,8.0,17.0,43,0.00,,,0.00,WUHU216DAVISVP2,2013-04-22 16:49:00,
2013-04-22 12:54:00,50.7,28.9,30.70,ESE,104,8.0,16.0,43,0.00,,,0.00,WUHU216DAVISVP2,2013-04-22 16:54:00,
2013-04-22 12:59:00,51.1,28.6,30.70,ESE,119,9.0,16.0,42,0.00,,,0.00,WUHU216DAVISVP2,2013-04-22 16:59:00,
2013-04-22 13:00:00,51.2,28.9,30.70,ESE,113,7.0,17.0,42,0.00,,,0.00,WUHU216DAVISVP2,2013-04-22 17:00:00,
2013-04-22 13:04:00,51.1,28.6,30.71,SE,141,6.8,16.0,42,0.00,,,0.00,WUHU216DAVISVP2,2013-04-22 17:04:00,
2013-04-22 13:09:00,50.9,27.2,30.70,ESE,114,10.0,17.0,40,0.00,,,0.00,WUHU216DAVISVP2,2013-04-22 17:09:00,
2013-04-22 13:14:00,51.0,28.5,30.71,SE,133,5.7,17.0,42,0.00,,,0.00,WUHU216DAVISVP2,2013-04-22 17:14:00,
2013-04-22 13:19:00,50.8,27.2,30.71,ESE,106,7.8,17.0,40,0.00,,,0.00,WUHU216DAVISVP2,2013-04-22 17:19:00,
2013-04-22 13:24:00,50.6,27.6,30.70,ESE,108,13.0,17.0,41,0.00,,,0.00,WUHU216DAVISVP2,2013-04-22 17:24:00,
2013-04-22 13:29:00,50.4,28.6,30.71,ESE,111,9.0,16.0,43,0.00,,,0.00,WUHU216DAVISVP2,2013-04-22 17:29:00,
2013-04-22 13:30:00,50.4,28.1,30.71,ESE,113,8.0,17.0,42,0.00,,,0.00,WUHU216DAVISVP2,2013-04-22 17:30:00,
2013-04-22 13:34:00,50.5,27.5,30.70,SE,146,7.6,16.0,41,0.00,,,0.00,WUHU216DAVISVP2,2013-04-22 17:34:00,
2013-04-22 13:39:00,50.6,27.7,30.70,SE,124,5.9,16.0,41,0.00,,,0.00,WUHU216DAVISVP2,2013-04-22 17:39:00,
2013-04-22 13:44:00,50.9,28.0,30.70,ENE,71,7.0,16.0,41,0.00,,,0.00,WUHU216DAVISVP2,2013-04-22 17:44:00,
2013-04-22 13:49:00,51.2,28.3,30.69,ENE,57,7.0,16.0,41,0.00,,,0.00,WUHU216DAVISVP2,2013-04-22 17:49:00,
2013-04-22 13:54:00,51.4,28.5,30.71,ESE,107,6.3,14.0,41,0.00,,,0.00,WUHU216DAVISVP2,2013-04-22 17:54:00,
2013-04-22 13:59:00,50.9,28.6,30.70,East,101,14.0,16.0,42,0.00,,,0.00,WUHU216DAVISVP2,2013-04-22 17:59:00,
2013-04-22 14:00:00,50.9,27.4,30.70,ESE,113,7.0,17.0,40,0.00,,,0.00,WUHU216DAVISVP2,2013-04-22 18:00:00,
2013-04-22 14:04:00,50.5,29.3,30.70,SSE,163,7.0,17.0,44,0.00,,,0.00,WUHU216DAVISVP2,2013-04-22 18:04:00,
2013-04-22 14:09:00,50.7,27.1,30.70,ESE,115,10.0,17.0,40,0.00,,,0.00,WUHU216DAVISVP2,2013-04-22 18:09:00,
2013-04-22 14:14:00,50.7,27.7,30.69,East,93,5.9,17.0,41,0.00,,,0.00,WUHU216DAVISVP2,2013-04-22 18:14:00,
2013-04-22 14:19:00,50.6,27.6,30.69,ESE,119,9.0,17.0,41,0.00,,,0.00,WUHU216DAVISVP2,2013-04-22 18:19:00,
2013-04-22 14:24:00,50.8,27.2,30.68,SE,125,10.0,17.0,40,0.00,,,0.00,WUHU216DAVISVP2,2013-04-22 18:24:00,
2013-04-22 14:29:00,50.6,27.0,30.67,ESE,105,8.0,16.0,40,0.00,,,0.00,WUHU216DAVISVP2,2013-04-22 18:29:00,
2013-04-22 14:30:00,50.6,26.5,30.67,ESE,113,7.0,17.0,39,0.00,,,0.00,WUHU216DAVISVP2,2013-04-22 18:30:00,
2013-04-22 14:34:00,50.1,26.1,30.67,SE,124,11.0,16.0,39,0.00,,,0.00,WUHU216DAVISVP2,2013-04-22 18:34:00,
2013-04-22 14:39:00,50.3,27.5,30.67,East,92,9.6,20.0,41,0.00,,,0.00,WUHU216DAVISVP2,2013-04-22 18:39:00,
2013-04-22 14:44:00,50.6,27.7,30.67,ESE,106,3.8,20.0,41,0.00,,,0.00,WUHU216DAVISVP2,2013-04-22 18:44:00,
2013-04-22 14:49:00,50.9,28.5,30.66,ESE,116,9.0,19.0,42,0.00,,,0.00,WUHU216DAVISVP2,2013-04-22 18:49:00,
2013-04-22 14:54:00,50.6,26.3,30.66,SE,132,10.0,19.0,39,0.00,,,0.00,WUHU216DAVISVP2,2013-04-22 18:54:00,
2013-04-22 14:59:00,50.4,27.4,30.66,East,87,4.5,15.0,41,0.00,,,0.00,WUHU216DAVISVP2,2013-04-22 18:59:00,
2013-04-22 15:00:00,50.4,28.1,30.66,ESE,113,7.0,20.0,42,0.00,,,0.00,WUHU216DAVISVP2,2013-04-22 19:00:00,
2013-04-22 15:04:00,50.3,27.3,30.66,ESE,115,6.6,17.0,41,0.00,,,0.00,WUHU216DAVISVP2,2013-04-22 19:04:00,
2013-04-22 15:09:00,50.5,25.2,30.66,ESE,114,8.8,17.0,37,0.00,,,0.00,WUHU216DAVISVP2,2013-04-22 19:09:00,
2013-04-22 15:14:00,50.5,27.0,30.66,SE,133,7.0,16.0,40,0.00,,,0.00,WUHU216DAVISVP2,2013-04-22 19:14:00,
2013-04-22 15:19:00,50.5,26.9,30.66,East,95,8.2,16.0,40,0.00,,,0.00,WUHU216DAVISVP2,2013-04-22 19:19:00,
2013-04-22 15:24:00,50.7,27.1,30.65,ENE,75,8.0,15.0,40,0.00,,,0.00,WUHU216DAVISVP2,2013-04-22 19:24:00,
2013-04-22 15:29:00,50.7,27.1,30.65,SE,136,9.0,15.0,40,0.00,,,0.00,WUHU216DAVISVP2,2013-04-22 19:29:00,
2013-04-22 15:30:00,50.6,27.1,30.65,ESE,113,7.0,17.0,40,0.00,,,0.00,WUHU216DAVISVP2,2013-04-22 19:30:00,
2013-04-22 15:34:00,50.3,26.7,30.65,ENE,72,3.7,15.0,40,0.00,,,0.00,WUHU216DAVISVP2,2013-04-22 19:34:00,
2013-04-22 15:39:00,50.7,26.4,30.65,ENE,71,7.0,12.0,39,0.00,,,0.00,WUHU216DAVISVP2,2013-04-22 19:39:00,
2013-04-22 15:44:00,50.7,24.5,30.65,East,86,7.0,12.0,36,0.00,,,0.00,WUHU216DAVISVP2,2013-04-22 19:44:00,
2013-04-22 15:49:00,50.1,23.9,30.65,ESE,116,5.7,17.0,36,0.00,,,0.00,WUHU216DAVISVP2,2013-04-22 19:49:00,
2013-04-22 15:54:00,49.9,23.8,30.65,ESE,112,15.0,17.0,36,0.00,,,0.00,WUHU216DAVISVP2,2013-04-22 19:54:00,
2013-04-22 15:59:00,50.0,23.9,30.65,SE,125,6.1,17.0,36,0.00,,,0.00,WUHU216DAVISVP2,2013-04-22 19:59:00,
2013-04-22 16:00:00,50.0,24.7,30.65,ESE,113,6.0,17.0,37,0.00,,,0.00,WUHU216DAVISVP2,2013-04-22 20:00:00,
2013-04-22 16:04:00,50.1,25.9,30.65,ESE,102,11.0,18.0,39,0.00,,,0.00,WUHU216DAVISVP2,2013-04-22 20:04:00,
2013-04-22 16:09:00,49.7,25.5,30.65,ESE,103,6.2,18.0,39,0.00,,,0.00,WUHU216DAVISVP2,2013-04-22 20:09:00,
2013-04-22 16:14:00,49.8,25.0,30.64,SE,137,5.0,18.0,38,0.00,,,0.00,WUHU216DAVISVP2,2013-04-22 20:14:00,
2013-04-22 16:19:00,49.7,25.5,30.65,ESE,109,9.0,18.0,39,0.00,,,0.00,WUHU216DAVISVP2,2013-04-22 20:19:00,
2013-04-22 16:24:00,50.0,27.6,30.64,SE,132,5.0,14.0,42,0.00,,,0.00,WUHU216DAVISVP2,2013-04-22 20:24:00,
2013-04-22 16:29:00,50.2,27.8,30.65,East,96,5.8,19.0,42,0.00,,,0.00,WUHU216DAVISVP2,2013-04-22 20:29:00,
2013-04-22 16:30:00,50.1,26.7,30.65,ESE,113,6.0,19.0,40,0.00,,,0.00,WUHU216DAVISVP2,2013-04-22 20:30:00,
2013-04-22 16:34:00,50.1,27.7,30.65,ESE,113,8.0,19.0,42,0.00,,,0.00,WUHU216DAVISVP2,2013-04-22 20:34:00,
2013-04-22 16:39:00,50.2,28.4,30.64,ESE,112,5.4,19.0,43,0.00,,,0.00,WUHU216DAVISVP2,2013-04-22 20:39:00,
2013-04-22 16:44:00,50.2,29.6,30.64,ESE,104,7.5,19.0,45,0.00,,,0.00,WUHU216DAVISVP2,2013-04-22 20:44:00,
2013-04-22 16:49:00,49.9,29.8,30.64,ESE,112,8.5,14.0,46,0.00,,,0.00,WUHU216DAVISVP2,2013-04-22 20:49:00,
2013-04-22 16:54:00,49.5,31.1,30.64,ESE,109,13.0,15.0,49,0.00,,,0.00,WUHU216DAVISVP2,2013-04-22 20:54:00,
2013-04-22 16:59:00,49.0,31.1,30.64,ESE,104,9.0,15.0,50,0.00,,,0.00,WUHU216DAVISVP2,2013-04-22 20:59:00,
2013-04-22 17:00:00,49.0,31.6,30.64,ESE,113,6.0,15.0,51,0.00,,,0.00,WUHU216DAVISVP2,2013-04-22 21:00:00,
2013-04-22 17:04:00,48.6,32.2,30.64,SE,138,7.0,17.0,53,0.00,,,0.00,WUHU216DAVISVP2,2013-04-22 21:04:00,
2013-04-22 17:09:00,48.5,33.1,30.64,ESE,115,8.0,17.0,55,0.00,,,0.00,WUHU216DAVISVP2,2013-04-22 21:09:00,
2013-04-22 17:14:00,48.7,33.8,30.64,ESE,116,3.6,17.0,56,0.00,,,0.00,WUHU216DAVISVP2,2013-04-22 21:14:00,
2013-04-22 17:19:00,48.7,33.3,30.65,ESE,115,12.0,16.0,55,0.00,,,0.00,WUHU216DAVISVP2,2013-04-22 21:19:00,
2013-04-22 17:24:00,48.4,33.5,30.65,East,91,6.2,16.0,56,0.00,,,0.00,WUHU216DAVISVP2,2013-04-22 21:24:00,
2013-04-22 17:29:00,48.5,33.1,30.64,ESE,102,5.3,16.0,55,0.00,,,0.00,WUHU216DAVISVP2,2013-04-22 21:29:00,
2013-04-22 17:30:00,48.3,33.3,30.65,ESE,113,6.0,17.0,56,0.00,,,0.00,WUHU216DAVISVP2,2013-04-22 21:30:00,
2013-04-22 17:34:00,48.3,33.8,30.65,East,99,8.0,15.0,57,0.00,,,0.00,WUHU216DAVISVP2,2013-04-22 21:34:00,
2013-04-22 17:39:00,48.1,34.1,30.65,SE,131,8.0,12.0,58,0.00,,,0.00,WUHU216DAVISVP2,2013-04-22 21:39:00,
2013-04-22 17:44:00,47.7,32.8,30.65,ESE,112,4.2,21.0,56,0.00,,,0.00,WUHU216DAVISVP2,2013-04-22 21:44:00,
2013-04-22 17:49:00,47.3,32.4,30.64,ENE,78,9.0,21.0,56,0.00,,,0.00,WUHU216DAVISVP2,2013-04-22 21:49:00,
2013-04-22 17:54:00,46.9,32.5,30.64,ESE,118,5.6,21.0,57,0.00,,,0.00,WUHU216DAVISVP2,2013-04-22 21:54:00,
2013-04-22 17:59:00,47.0,32.6,30.64,East,96,6.0,21.0,57,0.00,,,0.00,WUHU216DAVISVP2,2013-04-22 21:59:00,
2013-04-22 18:00:00,46.9,32.4,30.64,ESE,113,6.0,20.0,57,0.00,,,0.00,WUHU216DAVISVP2,2013-04-22 22:00:00,
2013-04-22 18:04:00,46.6,32.7,30.64,ESE,111,8.0,12.0,58,0.00,,,0.00,WUHU216DAVISVP2,2013-04-22 22:04:00,
2013-04-22 18:09:00,46.3,32.8,30.64,ESE,107,5.8,12.0,59,0.00,,,0.00,WUHU216DAVISVP2,2013-04-22 22:09:00,
2013-04-22 18:14:00,46.2,33.2,30.64,East,90,7.0,13.0,60,0.00,,,0.00,WUHU216DAVISVP2,2013-04-22 22:14:00,
2013-04-22 18:19:00,45.8,33.2,30.65,ESE,107,7.0,14.0,61,0.00,,,0.00,WUHU216DAVISVP2,2013-04-22 22:19:00,
2013-04-22 18:24:00,45.5,32.5,30.65,East,100,8.7,15.0,60,0.00,,,0.00,WUHU216DAVISVP2,2013-04-22 22:24:00,
2013-04-22 18:29:00,45.0,32.8,30.65,ESE,113,5.0,15.0,62,0.00,,,0.00,WUHU216DAVISVP2,2013-04-22 22:29:00,
2013-04-22 18:30:00,44.9,32.7,30.65,ESE,113,6.0,15.0,62,0.00,,,0.00,WUHU216DAVISVP2,2013-04-22 22:30:00,
2013-04-22 18:34:00,44.7,32.6,30.65,East,91,4.1,15.0,62,0.00,,,0.00,WUHU216DAVISVP2,2013-04-22 22:34:00,
2013-04-22 18:39:00,44.5,32.4,30.65,ESE,106,5.3,15.0,62,0.00,,,0.00,WUHU216DAVISVP2,2013-04-22 22:39:00,
2013-04-22 18:44:00,44.3,32.2,30.65,ESE,117,0.0,14.0,62,0.00,,,0.00,WUHU216DAVISVP2,2013-04-22 22:44:00,
2013-04-22 18:49:00,44.2,32.5,30.65,East,99,8.0,14.0,63,0.00,,,0.00,WUHU216DAVISVP2,2013-04-22 22:49:00,
2013-04-22 18:54:00,44.1,32.8,30.65,East,83,7.0,13.0,64,0.00,,,0.00,WUHU216DAVISVP2,2013-04-22 22:54:00,
2013-04-22 18:59:00,44.1,33.2,30.65,ENE,78,3.1,11.0,65,0.00,,,0.00,WUHU216DAVISVP2,2013-04-22 22:59:00,
2013-04-22 19:00:00,44.1,33.1,30.65,ESE,113,4.0,14.0,65,0.00,,,0.00,WUHU216DAVISVP2,2013-04-22 23:00:00,
2013-04-22 19:04:00,44.0,33.1,30.65,ESE,104,4.0,11.0,65,0.00,,,0.00,WUHU216DAVISVP2,2013-04-22 23:04:00,
2013-04-22 19:09:00,43.9,33.4,30.65,ESE,111,2.0,11.0,66,0.00,,,0.00,WUHU216DAVISVP2,2013-04-22 23:09:00,
2013-04-22 19:14:00,43.8,33.3,30.65,East,94,4.1,9.0,66,0.00,,,0.00,WUHU216DAVISVP2,2013-04-22 23:14:00,
2013-04-22 19:19:00,43.6,33.5,30.65,East,88,5.0,9.0,67,0.00,,,0.00,WUHU216DAVISVP2,2013-04-22 23:19:00,
2013-04-22 19:24:00,43.4,33.3,30.64,ENE,72,3.4,9.0,67,0.00,,,0.00,WUHU216DAVISVP2,2013-04-22 23:24:00,
2013-04-22 19:29:00,43.2,33.4,30.64,East,81,3.8,9.0,68,0.00,,,0.00,WUHU216DAVISVP2,2013-04-22 23:29:00,
2013-04-22 19:30:00,43.2,33.3,30.64,ENE,68,3.0,9.0,68,0.00,,,0.00,WUHU216DAVISVP2,2013-04-22 23:30:00,
2013-04-22 19:34:00,43.0,33.2,30.64,East,100,3.6,9.0,68,0.00,,,0.00,WUHU216DAVISVP2,2013-04-22 23:34:00,
2013-04-22 19:39:00,42.9,33.5,30.64,East,91,2.5,9.0,69,0.00,,,0.00,WUHU216DAVISVP2,2013-04-22 23:39:00,
2013-04-22 19:44:00,42.7,33.7,30.64,East,99,2.3,9.0,70,0.00,,,0.00,WUHU216DAVISVP2,2013-04-22 23:44:00,
2013-04-22 19:49:00,42.6,33.5,30.65,ESE,113,3.0,11.0,70,0.00,,,0.00,WUHU216DAVISVP2,2013-04-22 23:49:00,
2013-04-22 19:54:00,42.4,33.4,30.65,ENE,78,1.0,11.0,70,0.00,,,0.00,WUHU216DAVISVP2,2013-04-22 23:54:00,
2013-04-22 19:59:00,42.3,33.3,30.65,East,99,2.7,11.0,70,0.00,,,0.00,WUHU216DAVISVP2,2013-04-22 23:59:00,
2013-04-22 20:00:00,42.3,33.2,30.65,East,90,3.0,11.0,70,0.00,,,0.00,WUHU216DAVISVP2,2013-04-23 00:00:00,
2013-04-22 20:04:00,42.1,33.1,30.65,East,97,2.0,11.0,70,0.00,,,0.00,WUHU216DAVISVP2,2013-04-23 00:04:00,
2013-04-22 20:09:00,42.0,33.0,30.65,East,99,3.2,8.0,70,0.00,,,0.00,WUHU216DAVISVP2,2013-04-23 00:09:00,
2013-04-22 20:14:00,41.8,33.2,30.65,ESE,102,1.7,8.0,71,0.00,,,0.00,WUHU216DAVISVP2,2013-04-23 00:14:00,
2013-04-22 20:19:00,41.6,32.6,30.65,East,91,3.3,8.0,70,0.00,,,0.00,WUHU216DAVISVP2,2013-04-23 00:19:00,
2013-04-22 20:24:00,41.4,32.4,30.65,East,94,3.7,10.0,70,0.00,,,0.00,WUHU216DAVISVP2,2013-04-23 00:24:00,
2013-04-22 20:29:00,41.3,32.7,30.65,ESE,102,3.8,10.0,71,0.00,,,0.00,WUHU216DAVISVP2,2013-04-23 00:29:00,
2013-04-22 20:30:00,41.3,32.6,30.65,East,90,3.0,10.0,71,0.00,,,0.00,WUHU216DAVISVP2,2013-04-23 00:30:00,
2013-04-22 20:34:00,41.2,32.6,30.65,ESE,108,2.0,10.0,71,0.00,,,0.00,WUHU216DAVISVP2,2013-04-23 00:34:00,
2013-04-22 20:39:00,41.0,32.7,30.65,East,98,3.1,10.0,72,0.00,,,0.00,WUHU216DAVISVP2,2013-04-23 00:39:00,
2013-04-22 20:44:00,41.0,33.1,30.65,East,99,1.5,9.0,73,0.00,,,0.00,WUHU216DAVISVP2,2013-04-23 00:44:00,
2013-04-22 20:49:00,40.8,32.9,30.65,East,99,0.0,8.0,73,0.00,,,0.00,WUHU216DAVISVP2,2013-04-23 00:49:00,
2013-04-22 20:54:00,40.6,33.0,30.65,East,93,2.3,8.0,74,0.00,,,0.00,WUHU216DAVISVP2,2013-04-23 00:54:00,
2013-04-22 20:59:00,40.4,32.8,30.65,East,93,1.0,8.0,74,0.00,,,0.00,WUHU216DAVISVP2,2013-04-23 00:59:00,
2013-04-22 21:00:00,40.4,32.8,30.65,East,90,2.0,8.0,74,0.00,,,0.00,WUHU216DAVISVP2,2013-04-23 01:00:00,
2013-04-22 21:04:00,40.2,32.6,30.65,East,93,2.7,8.0,74,0.00,,,0.00,WUHU216DAVISVP2,2013-04-23 01:04:00,
2013-04-22 21:09:00,40.1,32.9,30.65,East,89,2.6,8.0,75,0.00,,,0.00,WUHU216DAVISVP2,2013-04-23 01:09:00,
2013-04-22 21:14:00,40.0,32.8,30.65,East,89,0.0,6.0,75,0.00,,,0.00,WUHU216DAVISVP2,2013-04-23 01:14:00,
2013-04-22 21:19:00,39.9,32.7,30.64,East,89,3.0,6.0,75,0.00,,,0.00,WUHU216DAVISVP2,2013-04-23 01:19:00,
2013-04-22 21:24:00,39.8,32.6,30.64,East,89,1.7,6.0,75,0.00,,,0.00,WUHU216DAVISVP2,2013-04-23 01:24:00,
2013-04-22 21:29:00,39.7,32.8,30.64,East,88,3.0,6.0,76,0.00,,,0.00,WUHU216DAVISVP2,2013-04-23 01:29:00,
2013-04-22 21:30:00,39.8,32.8,30.64,East,90,1.0,6.0,76,0.00,,,0.00,WUHU216DAVISVP2,2013-04-23 01:30:00,
2013-04-22 21:34:00,39.7,32.8,30.64,East,88,2.2,6.0,76,0.00,,,0.00,WUHU216DAVISVP2,2013-04-23 01:34:00,
2013-04-22 21:39:00,39.7,33.1,30.64,East,89,2.0,6.0,77,0.00,,,0.00,WUHU216DAVISVP2,2013-04-23 01:39:00,
2013-04-22 21:44:00,39.5,32.9,30.64,East,89,0.0,5.0,77,0.00,,,0.00,WUHU216DAVISVP2,2013-04-23 01:44:00,
2013-04-22 21:49:00,39.4,33.1,30.64,East,89,0.0,5.0,78,0.00,,,0.00,WUHU216DAVISVP2,2013-04-23 01:49:00,
2013-04-22 21:54:00,39.2,32.9,30.64,East,89,0.0,5.0,78,0.00,,,0.00,WUHU216DAVISVP2,2013-04-23 01:54:00,
2013-04-22 21:59:00,39.1,33.2,30.64,East,89,0.0,2.0,79,0.00,,,0.00,WUHU216DAVISVP2,2013-04-23 01:59:00,
2013-04-22 22:00:00,39.0,33.0,30.64,East,90,0.0,5.0,79,0.00,,,0.00,WUHU216DAVISVP2,2013-04-23 02:00:00,
2013-04-22 22:04:00,38.9,33.0,30.64,East,89,0.0,2.0,79,0.00,,,0.00,WUHU216DAVISVP2,2013-04-23 02:04:00,
2013-04-22 22:09:00,38.7,33.1,30.63,East,88,1.8,3.0,80,0.00,,,0.00,WUHU216DAVISVP2,2013-04-23 02:09:00,
2013-04-22 22:14:00,38.5,32.9,30.63,East,88,0.0,3.0,80,0.00,,,0.00,WUHU216DAVISVP2,2013-04-23 02:14:00,
2013-04-22 22:19:00,38.4,33.1,30.63,East,88,0.0,3.0,81,0.00,,,0.00,WUHU216DAVISVP2,2013-04-23 02:19:00,
2013-04-22 22:24:00,38.3,33.0,30.63,East,88,0.0,3.0,81,0.00,,,0.00,WUHU216DAVISVP2,2013-04-23 02:24:00,
2013-04-22 22:29:00,38.1,32.8,30.63,East,88,0.0,1.0,81,0.00,,,0.00,WUHU216DAVISVP2,2013-04-23 02:29:00,
2013-04-22 22:30:00,38.1,33.1,30.63,East,90,0.0,3.0,82,0.00,,,0.00,WUHU216DAVISVP2,2013-04-23 02:30:00,
2013-04-22 22:34:00,38.0,33.0,30.63,East,88,0.0,1.0,82,0.00,,,0.00,WUHU216DAVISVP2,2013-04-23 02:34:00,
2013-04-22 22:39:00,37.9,32.9,30.62,East,88,1.0,1.0,82,0.00,,,0.00,WUHU216DAVISVP2,2013-04-23 02:39:00,
2013-04-22 22:44:00,37.7,32.7,30.61,East,88,0.0,1.0,82,0.00,,,0.00,WUHU216DAVISVP2,2013-04-23 02:44:00,
2013-04-22 22:49:00,37.5,32.8,30.62,East,88,0.0,1.0,83,0.00,,,0.00,WUHU216DAVISVP2,2013-04-23 02:49:00,
2013-04-22 22:54:00,37.4,32.7,30.61,East,88,1.3,2.0,83,0.00,,,0.00,WUHU216DAVISVP2,2013-04-23 02:54:00,
2013-04-22 22:59:00,37.3,32.6,30.61,East,88,0.0,2.0,83,0.00,,,0.00,WUHU216DAVISVP2,2013-04-23 02:59:00,
2013-04-22 23:00:00,37.3,32.6,30.61,East,90,0.0,2.0,83,0.00,,,0.00,WUHU216DAVISVP2,2013-04-23 03:00:00,
2013-04-22 23:04:00,37.2,32.5,30.61,East,88,1.0,2.0,83,0.00,,,0.00,WUHU216DAVISVP2,2013-04-23 03:04:00,
2013-04-22 23:09:00,37.0,32.3,30.61,East,88,0.0,2.0,83,0.00,,,0.00,WUHU216DAVISVP2,2013-04-23 03:09:00,
2013-04-22 23:14:00,36.9,32.5,30.61,East,88,0.0,1.0,84,0.00,,,0.00,WUHU216DAVISVP2,2013-04-23 03:14:00,
2013-04-22 23:19:00,36.7,32.3,30.61,East,88,0.0,1.0,84,0.00,,,0.00,WUHU216DAVISVP2,2013-04-23 03:19:00,
2013-04-22 23:24:00,36.4,32.0,30.61,East,88,0.0,0.0,84,0.00,,,0.00,WUHU216DAVISVP2,2013-04-23 03:24:00,
2013-04-22 23:29:00,36.3,32.2,30.61,East,88,0.0,0.0,85,0.00,,,0.00,WUHU216DAVISVP2,2013-04-23 03:29:00,
2013-04-22 23:30:00,36.3,32.2,30.61,East,90,0.0,1.0,85,0.00,,,0.00,WUHU216DAVISVP2,2013-04-23 03:30:00,
2013-04-22 23:34:00,36.1,32.0,30.61,East,88,0.0,0.0,85,0.00,,,0.00,WUHU216DAVISVP2,2013-04-23 03:34:00,
2013-04-22 23:39:00,36.0,31.9,30.61,East,88,0.0,0.0,85,0.00,,,0.00,WUHU216DAVISVP2,2013-04-23 03:39:00,
2013-04-22 23:44:00,35.9,32.1,30.61,East,88,0.0,0.0,86,0.00,,,0.00,WUHU216DAVISVP2,2013-04-23 03:44:00,
2013-04-22 23:49:00,35.7,31.9,30.60,East,88,0.0,0.0,86,0.00,,,0.00,WUHU216DAVISVP2,2013-04-23 03:49:00,
2013-04-22 23:54:00,35.6,31.8,30.60,East,88,0.0,0.0,86,0.00,,,0.00,WUHU216DAVISVP2,2013-04-23 03:54:00,
2013-04-22 23:59:00,35.5,31.7,30.61,East,88,0.0,0.0,86,0.00,,,0.00,WUHU216DAVISVP2,2013-04-23 03:59:00,